Time,TemperatureF,DewpointF,PressureIn,WindDirection,WindDirectionDegrees,WindSpeedMPH,WindSpeedGustMPH,Humidity,HourlyPrecipIn,Conditions,Clouds,dailyrainin,SolarRadiationWatts/m^2,SoftwareType,DateUTC
2013-01-09 00:03:00,49.3,41.0,30.34,ENE,73,4.0,8.0,68,0.00,,,0.02,0.0,meteohub,2013-01-09 05:03:00,
2013-01-09 00:04:00,49.3,41.0,30.34,NE,53,3.0,8.0,68,0.00,,,0.02,0.0,meteohub,2013-01-09 05:04:00,
2013-01-09 00:09:00,49.3,41.0,30.34,ENE,64,3.0,8.0,68,0.00,,,0.00,0.0,meteohub,2013-01-09 05:09:00,
2013-01-09 00:14:00,49.3,40.6,30.34,ENE,61,1.0,8.0,67,0.00,,,0.00,0.0,meteohub,2013-01-09 05:14:00,
2013-01-09 00:19:00,49.3,41.0,30.34,NE,55,1.0,8.0,68,0.00,,,0.00,0.0,meteohub,2013-01-09 05:19:00,
2013-01-09 00:24:00,49.3,41.0,30.34,NNE,16,1.0,8.0,68,0.00,,,0.00,0.0,meteohub,2013-01-09 05:24:00,
2013-01-09 00:29:00,49.3,41.0,30.34,NE,38,2.0,10.0,68,0.00,,,0.00,0.0,meteohub,2013-01-09 05:29:00,
2013-01-09 00:34:00,49.3,41.0,30.34,East,83,4.0,10.0,68,0.00,,,0.00,0.0,meteohub,2013-01-09 05:34:00,
2013-01-09 00:39:00,49.3,41.0,30.34,NE,37,0.0,10.0,68,0.00,,,0.00,0.0,meteohub,2013-01-09 05:39:00,
2013-01-09 00:44:00,49.3,41.0,30.34,East,86,2.0,7.0,68,0.00,,,0.00,0.0,meteohub,2013-01-09 05:44:00,
2013-01-09 00:49:00,49.5,41.2,30.35,ENE,60,2.0,7.0,68,0.00,,,0.00,0.0,meteohub,2013-01-09 05:49:00,
2013-01-09 00:54:00,49.5,41.2,30.34,ENE,59,2.0,7.0,68,0.00,,,0.00,0.0,meteohub,2013-01-09 05:54:00,
2013-01-09 00:59:00,49.5,41.2,30.34,East,81,2.0,7.0,68,0.00,,,0.00,0.0,meteohub,2013-01-09 05:59:00,
2013-01-09 01:04:00,49.5,41.2,30.34,NNE,26,0.0,7.0,68,0.00,,,0.00,0.0,meteohub,2013-01-09 06:04:00,
2013-01-09 01:09:00,49.5,41.2,30.34,NNE,19,7.0,8.0,68,0.00,,,0.00,0.0,meteohub,2013-01-09 06:09:00,
2013-01-09 01:14:00,49.5,41.2,30.34,NNE,24,5.0,8.0,68,0.00,,,0.00,0.0,meteohub,2013-01-09 06:14:00,
2013-01-09 01:19:00,49.5,41.2,30.34,NE,34,3.0,8.0,68,0.00,,,0.00,0.0,meteohub,2013-01-09 06:19:00,
2013-01-09 01:24:00,49.5,41.2,30.35,ENE,57,0.0,8.0,68,0.00,,,0.00,0.0,meteohub,2013-01-09 06:24:00,
2013-01-09 01:29:00,49.6,41.4,30.35,NNE,22,1.0,7.0,68,0.00,,,0.00,0.0,meteohub,2013-01-09 06:29:00,
2013-01-09 01:34:00,49.6,41.4,30.35,NE,34,3.0,6.0,68,0.00,,,0.00,0.0,meteohub,2013-01-09 06:34:00,
2013-01-09 01:39:00,49.6,41.7,30.35,NNE,32,1.0,5.0,69,0.00,,,0.00,0.0,meteohub,2013-01-09 06:39:00,
2013-01-09 01:44:00,49.6,41.7,30.35,NNE,32,7.0,7.0,69,0.00,,,0.00,0.0,meteohub,2013-01-09 06:44:00,
2013-01-09 01:49:00,49.6,41.7,30.35,ENE,63,2.0,6.0,69,0.00,,,0.00,0.0,meteohub,2013-01-09 06:49:00,
2013-01-09 01:54:00,49.6,41.7,30.34,NE,49,4.0,7.0,69,0.00,,,0.00,0.0,meteohub,2013-01-09 06:54:00,
2013-01-09 01:59:00,49.6,41.7,30.34,ENE,64,5.0,9.0,69,0.00,,,0.00,0.0,meteohub,2013-01-09 06:59:00,
2013-01-09 02:04:00,49.6,41.7,30.34,NE,49,2.0,9.0,69,0.00,,,0.00,0.0,meteohub,2013-01-09 07:04:00,
2013-01-09 02:09:00,49.6,41.7,30.34,ENE,65,5.0,9.0,69,0.00,,,0.00,0.0,meteohub,2013-01-09 07:09:00,
2013-01-09 02:14:00,49.6,41.7,30.34,NE,45,3.0,9.0,69,0.00,,,0.00,0.0,meteohub,2013-01-09 07:14:00,
2013-01-09 02:19:00,49.6,41.7,30.35,ENE,59,1.0,14.0,69,0.00,,,0.00,0.0,meteohub,2013-01-09 07:19:00,
2013-01-09 02:24:00,49.6,41.7,30.35,NE,36,5.0,14.0,69,0.00,,,0.00,0.0,meteohub,2013-01-09 07:24:00,
2013-01-09 02:29:00,49.6,41.7,30.35,NE,51,2.0,14.0,69,0.00,,,0.00,0.0,meteohub,2013-01-09 07:29:00,
2013-01-09 02:34:00,49.6,41.7,30.34,East,83,0.0,11.0,69,0.00,,,0.00,0.0,meteohub,2013-01-09 07:34:00,
2013-01-09 02:39:00,49.6,41.7,30.34,NNE,29,3.0,11.0,69,0.00,,,0.00,0.0,meteohub,2013-01-09 07:39:00,
2013-01-09 02:44:00,49.6,41.7,30.34,ENE,57,2.0,9.0,69,0.00,,,0.00,0.0,meteohub,2013-01-09 07:44:00,
2013-01-09 02:49:00,49.6,41.7,30.34,NE,56,6.0,10.0,69,0.00,,,0.00,0.0,meteohub,2013-01-09 07:49:00,
2013-01-09 02:54:00,49.6,41.7,30.33,ENE,57,4.0,10.0,69,0.00,,,0.00,0.0,meteohub,2013-01-09 07:54:00,
2013-01-09 02:59:00,49.6,41.7,30.34,ENE,64,2.0,10.0,69,0.00,,,0.00,0.0,meteohub,2013-01-09 07:59:00,
2013-01-09 03:05:00,49.8,41.9,30.34,NNE,24,2.0,9.0,69,0.00,,,0.00,0.0,meteohub,2013-01-09 08:05:00,
2013-01-09 03:10:00,49.8,41.9,30.34,ENE,71,3.0,9.0,69,0.00,,,0.00,0.0,meteohub,2013-01-09 08:10:00,
2013-01-09 03:15:00,49.8,41.9,30.34,NNE,23,3.0,9.0,69,0.00,,,0.00,0.0,meteohub,2013-01-09 08:15:00,
2013-01-09 03:20:00,49.8,41.9,30.35,NNE,24,1.0,11.0,69,0.00,,,0.00,0.0,meteohub,2013-01-09 08:20:00,
2013-01-09 03:25:00,49.8,41.9,30.34,NNE,24,2.0,11.0,69,0.00,,,0.00,0.0,meteohub,2013-01-09 08:25:00,
2013-01-09 03:30:00,49.8,41.9,30.34,NNE,23,5.0,11.0,69,0.00,,,0.00,0.0,meteohub,2013-01-09 08:30:00,
2013-01-09 03:35:00,49.8,41.9,30.34,North,11,1.0,8.0,69,0.00,,,0.00,0.0,meteohub,2013-01-09 08:35:00,
2013-01-09 03:40:00,49.8,41.5,30.35,NNE,15,8.0,8.0,68,0.00,,,0.00,0.0,meteohub,2013-01-09 08:40:00,
2013-01-09 03:45:00,50.0,41.7,30.35,NNE,32,0.0,8.0,68,0.00,,,0.00,0.0,meteohub,2013-01-09 08:45:00,
2013-01-09 03:50:00,50.0,42.8,30.35,NNE,31,4.0,9.0,71,0.00,,,0.00,0.0,meteohub,2013-01-09 08:50:00,
2013-01-09 03:55:00,50.0,42.8,30.35,NNE,30,5.0,8.0,71,0.00,,,0.00,0.0,meteohub,2013-01-09 08:55:00,
2013-01-09 04:00:00,50.0,42.8,30.35,NE,34,2.0,9.0,71,0.00,,,0.00,0.0,meteohub,2013-01-09 09:00:00,
2013-01-09 04:05:00,50.0,42.8,30.35,NNE,19,3.0,9.0,71,0.00,,,0.00,0.0,meteohub,2013-01-09 09:05:00,
2013-01-09 04:10:00,50.2,42.3,30.34,NNE,17,1.0,9.0,69,0.00,,,0.00,0.0,meteohub,2013-01-09 09:10:00,
2013-01-09 04:15:00,50.0,42.1,30.34,NNE,25,6.0,9.0,69,0.00,,,0.00,0.0,meteohub,2013-01-09 09:15:00,
2013-01-09 04:20:00,50.2,42.3,30.34,NNE,24,3.0,9.0,69,0.00,,,0.00,0.0,meteohub,2013-01-09 09:20:00,
2013-01-09 04:25:00,50.0,42.1,30.34,NNE,18,1.0,9.0,69,0.00,,,0.00,0.0,meteohub,2013-01-09 09:25:00,
2013-01-09 04:30:00,50.0,42.1,30.34,NNE,26,0.0,9.0,69,0.00,,,0.00,0.0,meteohub,2013-01-09 09:30:00,
2013-01-09 04:35:00,50.2,42.3,30.34,NE,40,0.0,8.0,69,0.00,,,0.00,0.0,meteohub,2013-01-09 09:35:00,
2013-01-09 04:40:00,50.2,42.3,30.34,NNE,32,4.0,10.0,69,0.00,,,0.00,0.0,meteohub,2013-01-09 09:40:00,
2013-01-09 04:45:00,50.2,42.3,30.34,NNE,25,3.0,10.0,69,0.00,,,0.00,0.0,meteohub,2013-01-09 09:45:00,
2013-01-09 04:50:00,50.2,42.3,30.34,NE,37,1.0,10.0,69,0.00,,,0.00,0.0,meteohub,2013-01-09 09:50:00,
2013-01-09 04:55:00,50.2,42.3,30.34,ENE,74,0.0,10.0,69,0.00,,,0.00,0.0,meteohub,2013-01-09 09:55:00,
2013-01-09 05:00:00,50.2,42.3,30.34,NNE,31,4.0,6.0,69,0.00,,,0.00,0.0,meteohub,2013-01-09 10:00:00,
2013-01-09 05:05:00,50.2,42.3,30.34,NNE,22,4.0,6.0,69,0.00,,,0.00,0.0,meteohub,2013-01-09 10:05:00,
2013-01-09 05:10:00,50.2,42.3,30.34,NE,50,2.0,8.0,69,0.00,,,0.00,0.0,meteohub,2013-01-09 10:10:00,
2013-01-09 05:15:00,50.2,42.3,30.34,NNE,19,3.0,8.0,69,0.00,,,0.00,0.0,meteohub,2013-01-09 10:15:00,
2013-01-09 05:20:00,50.2,42.3,30.34,NNE,30,2.0,8.0,69,0.00,,,0.00,0.0,meteohub,2013-01-09 10:20:00,
2013-01-09 05:25:00,50.4,42.4,30.34,NNE,20,4.0,7.0,69,0.00,,,0.00,0.0,meteohub,2013-01-09 10:25:00,
2013-01-09 05:30:00,50.4,42.4,30.34,NNE,24,4.0,7.0,69,0.00,,,0.00,0.0,meteohub,2013-01-09 10:30:00,
2013-01-09 05:35:00,50.4,42.4,30.35,NNE,27,5.0,7.0,69,0.00,,,0.00,0.0,meteohub,2013-01-09 10:35:00,
2013-01-09 05:40:00,50.4,42.4,30.35,NE,49,3.0,7.0,69,0.00,,,0.00,0.0,meteohub,2013-01-09 10:40:00,
2013-01-09 05:45:00,50.4,42.4,30.35,NNE,22,2.0,6.0,69,0.00,,,0.00,0.0,meteohub,2013-01-09 10:45:00,
2013-01-09 05:50:00,50.4,42.4,30.35,NNE,25,0.0,6.0,69,0.00,,,0.00,0.0,meteohub,2013-01-09 10:50:00,
2013-01-09 05:56:00,50.4,42.8,30.35,NNE,25,0.0,5.0,70,0.00,,,0.00,0.0,meteohub,2013-01-09 10:56:00,
2013-01-09 06:01:00,50.4,42.8,30.35,NNE,25,0.0,5.0,70,0.00,,,0.00,0.0,meteohub,2013-01-09 11:01:00,
2013-01-09 06:06:00,50.4,42.8,30.36,NNE,25,0.0,2.0,70,0.00,,,0.00,0.0,meteohub,2013-01-09 11:06:00,
2013-01-09 06:11:00,50.4,42.8,30.36,NE,34,2.0,7.0,70,0.00,,,0.00,0.0,meteohub,2013-01-09 11:11:00,
2013-01-09 06:16:00,50.5,43.0,30.35,NNE,29,3.0,9.0,70,0.00,,,0.00,0.0,meteohub,2013-01-09 11:16:00,
2013-01-09 06:21:00,50.5,43.0,30.35,NNE,19,4.0,9.0,70,0.00,,,0.00,0.0,meteohub,2013-01-09 11:21:00,
2013-01-09 06:26:00,50.5,43.0,30.36,NE,44,1.0,9.0,70,0.00,,,0.00,0.0,meteohub,2013-01-09 11:26:00,
2013-01-09 06:31:00,50.5,43.0,30.36,NE,46,0.0,8.0,70,0.00,,,0.00,0.0,meteohub,2013-01-09 11:31:00,
2013-01-09 06:36:00,50.5,43.0,30.36,NE,46,0.0,8.0,70,0.00,,,0.00,0.0,meteohub,2013-01-09 11:36:00,
2013-01-09 06:41:00,50.5,43.0,30.36,ENE,67,3.0,5.0,70,0.00,,,0.00,0.0,meteohub,2013-01-09 11:41:00,
2013-01-09 06:46:00,50.5,43.0,30.36,NE,49,2.0,6.0,70,0.00,,,0.00,0.0,meteohub,2013-01-09 11:46:00,
2013-01-09 06:51:00,50.5,43.0,30.36,NE,51,2.0,6.0,70,0.00,,,0.00,0.0,meteohub,2013-01-09 11:51:00,
2013-01-09 06:56:00,50.5,43.0,30.36,NE,53,1.0,6.0,70,0.00,,,0.00,0.0,meteohub,2013-01-09 11:56:00,
2013-01-09 07:01:00,50.7,43.2,30.36,ENE,65,1.0,5.0,70,0.00,,,0.00,0.0,meteohub,2013-01-09 12:01:00,
2013-01-09 07:06:00,50.7,43.2,30.36,NNE,21,3.0,7.0,70,0.00,,,0.00,0.0,meteohub,2013-01-09 12:06:00,
2013-01-09 07:11:00,50.7,43.2,30.37,NNE,28,4.0,7.0,70,0.00,,,0.00,0.0,meteohub,2013-01-09 12:11:00,
2013-01-09 07:16:00,50.7,43.2,30.37,NNE,20,3.0,7.0,70,0.00,,,0.00,0.0,meteohub,2013-01-09 12:16:00,
2013-01-09 07:21:00,50.7,43.2,30.37,NE,47,4.0,7.0,70,0.00,,,0.00,0.0,meteohub,2013-01-09 12:21:00,
2013-01-09 07:26:00,50.9,43.5,30.38,NE,44,3.0,6.0,71,0.00,,,0.00,0.0,meteohub,2013-01-09 12:26:00,
2013-01-09 07:31:00,50.9,43.5,30.38,NE,36,1.0,6.0,71,0.00,,,0.00,0.0,meteohub,2013-01-09 12:31:00,
2013-01-09 07:36:00,51.1,43.7,30.38,NE,37,3.0,5.0,71,0.00,,,0.00,0.0,meteohub,2013-01-09 12:36:00,
2013-01-09 07:41:00,51.1,43.7,30.38,NE,36,1.0,6.0,71,0.00,,,0.00,0.0,meteohub,2013-01-09 12:41:00,
2013-01-09 07:46:00,51.1,43.7,30.38,NE,39,0.0,6.0,71,0.00,,,0.00,8.4,meteohub,2013-01-09 12:46:00,
2013-01-09 07:51:00,51.1,43.7,30.38,NE,38,1.0,6.0,71,0.00,,,0.00,16.8,meteohub,2013-01-09 12:51:00,
2013-01-09 07:56:00,51.1,43.7,30.38,NE,38,1.0,4.0,71,0.00,,,0.00,33.6,meteohub,2013-01-09 12:56:00,
2013-01-09 08:01:00,51.3,43.9,30.38,NE,36,1.0,4.0,71,0.00,,,0.00,48.0,meteohub,2013-01-09 13:01:00,
2013-01-09 08:06:00,51.3,43.9,30.38,NNE,28,0.0,4.0,71,0.00,,,0.00,61.2,meteohub,2013-01-09 13:06:00,
2013-01-09 08:11:00,51.3,43.5,30.39,ENE,66,0.0,4.0,70,0.00,,,0.00,64.8,meteohub,2013-01-09 13:11:00,
2013-01-09 08:16:00,51.4,43.7,30.39,ENE,78,1.0,4.0,70,0.00,,,0.00,50.4,meteohub,2013-01-09 13:16:00,
2013-01-09 08:21:00,51.4,43.7,30.39,NNE,32,1.0,3.0,70,0.00,,,0.00,61.2,meteohub,2013-01-09 13:21:00,
2013-01-09 08:26:00,51.6,43.9,30.39,NNE,33,0.0,3.0,70,0.00,,,0.00,56.4,meteohub,2013-01-09 13:26:00,
2013-01-09 08:31:00,51.6,43.9,30.40,NNE,33,0.0,3.0,70,0.00,,,0.00,48.0,meteohub,2013-01-09 13:31:00,
2013-01-09 08:36:00,52.0,44.2,30.40,NE,40,0.0,3.0,70,0.00,,,0.00,55.2,meteohub,2013-01-09 13:36:00,
2013-01-09 08:41:00,52.0,44.2,30.40,NE,54,0.0,5.0,70,0.00,,,0.00,63.6,meteohub,2013-01-09 13:41:00,
2013-01-09 08:46:00,52.2,44.4,30.40,ENE,61,3.0,5.0,70,0.00,,,0.00,61.2,meteohub,2013-01-09 13:46:00,
2013-01-09 08:51:00,52.3,44.6,30.40,NE,37,2.0,7.0,70,0.00,,,0.00,56.4,meteohub,2013-01-09 13:51:00,
2013-01-09 08:57:00,52.5,44.8,30.40,NNE,19,2.0,7.0,70,0.00,,,0.00,64.8,meteohub,2013-01-09 13:57:00,
2013-01-09 09:02:00,52.5,44.8,30.40,ENE,69,1.0,7.0,70,0.00,,,0.00,88.8,meteohub,2013-01-09 14:02:00,
2013-01-09 09:07:00,52.9,45.1,30.40,East,84,4.0,6.0,70,0.00,,,0.00,103.2,meteohub,2013-01-09 14:07:00,
2013-01-09 09:12:00,53.2,45.5,30.40,East,94,1.0,6.0,70,0.00,,,0.00,103.2,meteohub,2013-01-09 14:12:00,
2013-01-09 09:17:00,53.2,45.5,30.39,NE,40,7.0,8.0,70,0.00,,,0.00,99.6,meteohub,2013-01-09 14:17:00,
2013-01-09 09:22:00,53.4,45.3,30.39,NE,51,7.0,11.0,69,0.00,,,0.00,108.0,meteohub,2013-01-09 14:22:00,
2013-01-09 09:27:00,53.6,45.5,30.39,NE,40,0.0,11.0,69,0.00,,,0.00,114.0,meteohub,2013-01-09 14:27:00,
2013-01-09 09:32:00,53.8,45.7,30.40,NE,42,5.0,11.0,69,0.00,,,0.00,122.4,meteohub,2013-01-09 14:32:00,
2013-01-09 09:37:00,54.0,45.9,30.40,NNE,18,0.0,8.0,69,0.00,,,0.00,128.4,meteohub,2013-01-09 14:37:00,
2013-01-09 09:42:00,54.1,46.0,30.40,NE,44,0.0,7.0,69,0.00,,,0.00,130.8,meteohub,2013-01-09 14:42:00,
2013-01-09 09:47:00,54.3,46.2,30.40,NE,38,0.0,7.0,69,0.00,,,0.00,139.2,meteohub,2013-01-09 14:47:00,
2013-01-09 09:52:00,54.7,46.6,30.40,NNE,25,0.0,4.0,69,0.00,,,0.00,145.2,meteohub,2013-01-09 14:52:00,
2013-01-09 09:57:00,54.7,46.6,30.41,NNE,22,4.0,5.0,69,0.00,,,0.00,141.6,meteohub,2013-01-09 14:57:00,
2013-01-09 10:02:00,55.0,46.9,30.41,NNE,18,0.0,6.0,69,0.00,,,0.00,156.0,meteohub,2013-01-09 15:02:00,
2013-01-09 10:07:00,55.2,47.1,30.41,NNE,21,1.0,6.0,69,0.00,,,0.00,136.8,meteohub,2013-01-09 15:07:00,
2013-01-09 10:12:00,55.6,47.5,30.41,NNE,22,0.0,6.0,69,0.00,,,0.00,177.6,meteohub,2013-01-09 15:12:00,
2013-01-09 10:17:00,55.8,47.7,30.41,NNE,22,0.0,5.0,69,0.00,,,0.00,192.0,meteohub,2013-01-09 15:17:00,
2013-01-09 10:22:00,55.9,47.8,30.41,ENE,62,1.0,5.0,69,0.00,,,0.00,194.4,meteohub,2013-01-09 15:22:00,
2013-01-09 10:27:00,56.1,48.0,30.41,ENE,57,2.0,5.0,69,0.00,,,0.00,189.6,meteohub,2013-01-09 15:27:00,
2013-01-09 10:32:00,56.5,48.4,30.41,NE,41,1.0,5.0,69,0.00,,,0.00,192.0,meteohub,2013-01-09 15:32:00,
2013-01-09 10:37:00,56.7,48.0,30.41,NE,40,0.0,5.0,68,0.00,,,0.00,192.0,meteohub,2013-01-09 15:37:00,
2013-01-09 10:42:00,57.0,48.7,30.41,NE,40,3.0,4.0,69,0.00,,,0.00,181.2,meteohub,2013-01-09 15:42:00,
2013-01-09 10:47:00,57.4,49.1,30.41,NE,40,0.0,3.0,69,0.00,,,0.00,158.4,meteohub,2013-01-09 15:47:00,
2013-01-09 10:52:00,57.6,48.9,30.41,NE,44,0.0,4.0,68,0.00,,,0.00,166.8,meteohub,2013-01-09 15:52:00,
2013-01-09 10:57:00,57.7,49.1,30.40,NNE,29,2.0,4.0,68,0.00,,,0.00,178.8,meteohub,2013-01-09 15:57:00,
2013-01-09 11:02:00,57.9,49.6,30.40,NNE,24,2.0,4.0,69,0.00,,,0.00,192.0,meteohub,2013-01-09 16:02:00,
2013-01-09 11:07:00,58.1,49.8,30.39,ENE,67,2.0,5.0,69,0.00,,,0.00,205.2,meteohub,2013-01-09 16:07:00,
2013-01-09 11:12:00,58.5,50.2,30.39,ENE,62,0.0,5.0,69,0.00,,,0.00,222.0,meteohub,2013-01-09 16:12:00,
2013-01-09 11:17:00,58.8,50.5,30.39,ENE,65,0.0,5.0,69,0.00,,,0.00,238.8,meteohub,2013-01-09 16:17:00,
2013-01-09 11:22:00,59.2,51.3,30.38,ENE,67,2.0,5.0,70,0.00,,,0.00,256.8,meteohub,2013-01-09 16:22:00,
2013-01-09 11:27:00,59.4,51.4,30.38,ENE,58,1.0,5.0,70,0.00,,,0.00,270.0,meteohub,2013-01-09 16:27:00,
2013-01-09 11:32:00,59.5,51.6,30.38,NE,42,1.0,5.0,70,0.00,,,0.00,301.2,meteohub,2013-01-09 16:32:00,
2013-01-09 11:37:00,59.7,52.2,30.38,NE,34,0.0,6.0,71,0.00,,,0.00,316.8,meteohub,2013-01-09 16:37:00,
2013-01-09 11:42:00,60.4,52.5,30.38,NE,34,0.0,6.0,70,0.00,,,0.00,318.0,meteohub,2013-01-09 16:42:00,
2013-01-09 11:47:00,61.2,53.6,30.38,ENE,67,1.0,6.0,71,0.00,,,0.00,326.4,meteohub,2013-01-09 16:47:00,
2013-01-09 11:52:00,61.5,53.6,30.38,SE,146,0.0,4.0,70,0.01,,,0.00,292.8,meteohub,2013-01-09 16:52:00,
2013-01-09 11:57:00,61.5,53.6,30.37,East,82,1.0,4.0,70,0.01,,,0.01,326.4,meteohub,2013-01-09 16:57:00,
2013-01-09 12:02:00,61.5,53.6,30.37,ENE,61,1.0,4.0,70,0.01,,,0.01,278.4,meteohub,2013-01-09 17:02:00,
2013-01-09 12:07:00,61.9,54.3,30.37,East,79,4.0,6.0,71,0.01,,,0.01,272.4,meteohub,2013-01-09 17:07:00,
2013-01-09 12:12:00,61.5,54.3,30.36,ENE,64,0.0,6.0,72,0.01,,,0.01,256.8,meteohub,2013-01-09 17:12:00,
2013-01-09 12:17:00,61.5,54.3,30.36,ENE,65,1.0,6.0,72,0.01,,,0.01,255.6,meteohub,2013-01-09 17:17:00,
2013-01-09 12:22:00,61.9,54.7,30.36,ENE,61,3.0,5.0,72,0.01,,,0.01,289.2,meteohub,2013-01-09 17:22:00,
2013-01-09 12:27:00,62.2,54.9,30.36,ENE,63,3.0,8.0,72,0.01,,,0.01,242.4,meteohub,2013-01-09 17:27:00,
2013-01-09 12:32:00,62.1,54.7,30.36,NNE,32,2.0,8.0,72,0.01,,,0.01,187.2,meteohub,2013-01-09 17:32:00,
2013-01-09 12:37:00,62.1,54.7,30.36,NNE,27,1.0,8.0,72,0.01,,,0.01,172.8,meteohub,2013-01-09 17:37:00,
2013-01-09 12:42:00,62.1,54.7,30.36,NNE,20,6.0,7.0,72,0.01,,,0.01,194.4,meteohub,2013-01-09 17:42:00,
2013-01-09 12:47:00,62.2,54.9,30.36,NE,39,0.0,6.0,72,0.01,,,0.01,211.2,meteohub,2013-01-09 17:47:00,
2013-01-09 12:52:00,62.6,55.2,30.35,NE,40,0.0,6.0,72,0.00,,,0.01,223.2,meteohub,2013-01-09 17:52:00,
2013-01-09 12:57:00,62.6,54.9,30.35,NE,43,5.0,6.0,71,0.00,,,0.01,228.0,meteohub,2013-01-09 17:57:00,
2013-01-09 13:02:00,62.4,54.7,30.35,NE,48,0.0,5.0,71,0.00,,,0.01,231.6,meteohub,2013-01-09 18:02:00,
2013-01-09 13:07:00,62.8,55.0,30.35,NE,48,0.0,5.0,71,0.00,,,0.01,213.6,meteohub,2013-01-09 18:07:00,
2013-01-09 13:12:00,63.0,55.2,30.35,NE,48,0.0,5.0,71,0.00,,,0.01,198.0,meteohub,2013-01-09 18:12:00,
2013-01-09 13:17:00,63.1,55.4,30.35,NE,48,1.0,4.0,71,0.00,,,0.01,175.2,meteohub,2013-01-09 18:17:00,
2013-01-09 13:22:00,63.0,55.2,30.35,NE,40,1.0,3.0,71,0.00,,,0.01,177.6,meteohub,2013-01-09 18:22:00,
2013-01-09 13:27:00,62.8,55.0,30.34,NE,54,3.0,6.0,71,0.00,,,0.01,192.0,meteohub,2013-01-09 18:27:00,
2013-01-09 13:32:00,62.6,54.9,30.34,NE,52,3.0,8.0,71,0.00,,,0.01,208.8,meteohub,2013-01-09 18:32:00,
2013-01-09 13:37:00,62.8,55.4,30.34,NE,38,0.0,8.0,72,0.00,,,0.01,228.0,meteohub,2013-01-09 18:37:00,
2013-01-09 13:41:00,63.1,55.4,30.34,NE,38,0.0,8.0,71,0.00,,,0.01,236.4,meteohub,2013-01-09 18:41:00,
2013-01-09 13:42:00,63.1,55.4,30.34,ENE,66,2.0,8.0,71,0.00,,,0.01,242.4,meteohub,2013-01-09 18:42:00,
2013-01-09 13:44:00,63.0,55.2,30.34,ENE,66,0.0,8.0,71,0.00,,,0.01,240.0,meteohub,2013-01-09 18:44:00,
2013-01-09 13:45:00,63.0,55.2,30.34,NNE,33,3.0,7.0,71,0.00,,,0.01,236.4,meteohub,2013-01-09 18:45:00,
2013-01-09 13:48:00,62.8,55.0,30.34,NE,46,2.0,7.0,71,0.00,,,0.01,222.0,meteohub,2013-01-09 18:48:00,
2013-01-09 13:49:00,62.8,55.0,30.33,NE,46,0.0,7.0,71,0.00,,,0.01,214.8,meteohub,2013-01-09 18:49:00,
2013-01-09 13:50:00,62.8,55.0,30.33,ENE,58,0.0,7.0,71,0.00,,,0.01,214.8,meteohub,2013-01-09 18:50:00,
2013-01-09 13:55:00,62.8,55.0,30.33,ENE,76,4.0,5.0,71,0.00,,,0.01,205.2,meteohub,2013-01-09 18:55:00,
2013-01-09 14:00:00,62.8,55.4,30.33,NE,43,5.0,8.0,72,0.00,,,0.01,169.2,meteohub,2013-01-09 19:00:00,
2013-01-09 14:05:00,63.0,55.9,30.33,NNE,32,5.0,8.0,73,0.00,,,0.01,139.2,meteohub,2013-01-09 19:05:00,
2013-01-09 14:10:00,62.8,56.1,30.33,ENE,76,0.0,10.0,74,0.00,,,0.01,130.8,meteohub,2013-01-09 19:10:00,
2013-01-09 14:15:00,62.6,55.9,30.33,ENE,70,0.0,6.0,74,0.00,,,0.01,120.0,meteohub,2013-01-09 19:15:00,
2013-01-09 14:20:00,62.4,56.1,30.33,ENE,69,0.0,6.0,75,0.00,,,0.01,135.6,meteohub,2013-01-09 19:20:00,
2013-01-09 14:25:00,62.8,56.5,30.33,ENE,71,0.0,4.0,75,0.00,,,0.01,124.8,meteohub,2013-01-09 19:25:00,
2013-01-09 14:30:00,62.8,56.5,30.33,ENE,67,4.0,4.0,75,0.00,,,0.01,130.8,meteohub,2013-01-09 19:30:00,
2013-01-09 14:35:00,62.8,56.8,30.33,ENE,67,0.0,6.0,76,0.00,,,0.01,135.6,meteohub,2013-01-09 19:35:00,
2013-01-09 14:40:00,62.8,56.8,30.33,ENE,66,0.0,6.0,76,0.00,,,0.01,124.8,meteohub,2013-01-09 19:40:00,
2013-01-09 14:45:00,62.8,56.8,30.33,ENE,57,0.0,6.0,76,0.00,,,0.01,139.2,meteohub,2013-01-09 19:45:00,
2013-01-09 14:50:00,62.8,56.5,30.33,ENE,69,0.0,10.0,75,0.00,,,0.01,136.8,meteohub,2013-01-09 19:50:00,
2013-01-09 14:55:00,62.8,56.5,30.33,ENE,63,3.0,10.0,75,0.00,,,0.01,156.0,meteohub,2013-01-09 19:55:00,
2013-01-09 15:00:00,63.0,56.3,30.33,NE,45,2.0,10.0,74,0.00,,,0.01,160.8,meteohub,2013-01-09 20:00:00,
2013-01-09 15:06:00,63.1,56.5,30.33,NNE,31,1.0,5.0,74,0.00,,,0.01,160.8,meteohub,2013-01-09 20:06:00,
2013-01-09 15:11:00,63.3,56.3,30.33,ENE,60,0.0,5.0,73,0.00,,,0.01,145.2,meteohub,2013-01-09 20:11:00,
2013-01-09 15:16:00,63.3,56.3,30.33,NNE,13,7.0,7.0,73,0.00,,,0.01,133.2,meteohub,2013-01-09 20:16:00,
2013-01-09 15:21:00,63.5,56.5,30.33,NE,43,0.0,7.0,73,0.00,,,0.01,139.2,meteohub,2013-01-09 20:21:00,
2013-01-09 15:26:00,63.1,56.1,30.33,East,87,1.0,7.0,73,0.00,,,0.01,139.2,meteohub,2013-01-09 20:26:00,
2013-01-09 15:31:00,63.3,56.3,30.33,NE,49,0.0,7.0,73,0.00,,,0.01,177.6,meteohub,2013-01-09 20:31:00,
2013-01-09 15:36:00,63.5,56.5,30.33,ENE,57,4.0,7.0,73,0.00,,,0.01,162.0,meteohub,2013-01-09 20:36:00,
2013-01-09 15:41:00,63.5,56.5,30.33,NNE,32,1.0,7.0,73,0.00,,,0.01,153.6,meteohub,2013-01-09 20:41:00,
2013-01-09 15:46:00,63.7,56.3,30.34,NNE,23,0.0,8.0,72,0.00,,,0.01,136.8,meteohub,2013-01-09 20:46:00,
2013-01-09 15:51:00,63.5,56.1,30.34,NE,44,5.0,9.0,72,0.00,,,0.01,124.8,meteohub,2013-01-09 20:51:00,
2013-01-09 15:56:00,63.5,56.1,30.34,NNE,30,2.0,9.0,72,0.00,,,0.01,120.0,meteohub,2013-01-09 20:56:00,
2013-01-09 16:01:00,63.7,56.3,30.34,NNE,22,0.0,8.0,72,0.00,,,0.01,111.6,meteohub,2013-01-09 21:01:00,
2013-01-09 16:06:00,63.7,56.3,30.33,NE,38,0.0,8.0,72,0.00,,,0.01,147.6,meteohub,2013-01-09 21:06:00,
2013-01-09 16:11:00,63.7,56.3,30.33,ENE,63,1.0,7.0,72,0.00,,,0.01,160.8,meteohub,2013-01-09 21:11:00,
2013-01-09 16:16:00,63.9,56.1,30.34,ENE,57,1.0,7.0,71,0.00,,,0.01,228.0,meteohub,2013-01-09 21:16:00,
2013-01-09 16:21:00,63.9,56.1,30.34,NNE,31,4.0,7.0,71,0.00,,,0.01,236.4,meteohub,2013-01-09 21:21:00,
2013-01-09 16:26:00,64.0,56.3,30.34,NNE,26,0.0,8.0,71,0.00,,,0.01,109.2,meteohub,2013-01-09 21:26:00,
2013-01-09 16:31:00,64.0,56.3,30.33,NNE,24,4.0,8.0,71,0.00,,,0.01,80.4,meteohub,2013-01-09 21:31:00,
2013-01-09 16:36:00,63.9,55.8,30.33,NNE,26,4.0,8.0,70,0.00,,,0.01,55.2,meteohub,2013-01-09 21:36:00,
2013-01-09 16:41:00,63.9,55.8,30.33,NNE,25,5.0,7.0,70,0.00,,,0.01,48.0,meteohub,2013-01-09 21:41:00,
2013-01-09 16:46:00,63.9,55.8,30.34,NE,34,2.0,8.0,70,0.00,,,0.01,46.8,meteohub,2013-01-09 21:46:00,
2013-01-09 16:51:00,63.9,55.8,30.34,ENE,65,0.0,8.0,70,0.00,,,0.01,46.8,meteohub,2013-01-09 21:51:00,
2013-01-09 16:56:00,63.9,55.8,30.33,NNE,20,6.0,6.0,70,0.00,,,0.01,38.4,meteohub,2013-01-09 21:56:00,
2013-01-09 17:01:00,63.7,55.6,30.34,NNE,32,2.0,7.0,70,0.00,,,0.01,30.0,meteohub,2013-01-09 22:01:00,
2013-01-09 17:06:00,63.7,55.6,30.34,NE,44,0.0,7.0,70,0.00,,,0.01,22.8,meteohub,2013-01-09 22:06:00,
2013-01-09 17:11:00,63.7,55.6,30.34,ENE,75,0.0,7.0,70,0.00,,,0.01,16.8,meteohub,2013-01-09 22:11:00,
2013-01-09 17:16:00,63.5,55.4,30.33,ENE,75,0.0,5.0,70,0.00,,,0.01,13.2,meteohub,2013-01-09 22:16:00,
2013-01-09 17:21:00,63.5,55.4,30.34,NE,56,0.0,5.0,70,0.00,,,0.01,8.4,meteohub,2013-01-09 22:21:00,
2013-01-09 17:26:00,63.3,55.2,30.34,NE,34,1.0,4.0,70,0.00,,,0.01,6.0,meteohub,2013-01-09 22:26:00,
2013-01-09 17:31:00,63.3,55.2,30.34,ENE,69,0.0,4.0,70,0.00,,,0.01,0.0,meteohub,2013-01-09 22:31:00,
2013-01-09 17:36:00,63.1,55.4,30.34,ENE,61,1.0,4.0,71,0.00,,,0.01,0.0,meteohub,2013-01-09 22:36:00,
2013-01-09 17:41:00,63.1,55.4,30.34,NNE,29,0.0,3.0,71,0.00,,,0.01,0.0,meteohub,2013-01-09 22:41:00,
2013-01-09 17:46:00,63.1,55.4,30.34,ENE,57,1.0,3.0,71,0.00,,,0.01,0.0,meteohub,2013-01-09 22:46:00,
2013-01-09 17:51:00,63.0,55.2,30.34,ENE,57,0.0,3.0,71,0.00,,,0.01,0.0,meteohub,2013-01-09 22:51:00,
2013-01-09 17:56:00,63.0,55.2,30.34,ENE,57,0.0,3.0,71,0.00,,,0.01,0.0,meteohub,2013-01-09 22:56:00,
2013-01-09 18:01:00,62.8,55.0,30.34,NE,35,3.0,3.0,71,0.00,,,0.01,0.0,meteohub,2013-01-09 23:01:00,
2013-01-09 18:06:00,62.6,54.9,30.34,NNE,22,2.0,5.0,71,0.00,,,0.01,0.0,meteohub,2013-01-09 23:06:00,
2013-01-09 18:11:00,62.4,54.7,30.34,NE,45,0.0,5.0,71,0.00,,,0.01,0.0,meteohub,2013-01-09 23:11:00,
2013-01-09 18:16:00,62.4,54.7,30.34,NNE,28,4.0,5.0,71,0.00,,,0.01,0.0,meteohub,2013-01-09 23:16:00,
2013-01-09 18:21:00,62.2,54.1,30.34,NNE,30,3.0,5.0,70,0.00,,,0.01,0.0,meteohub,2013-01-09 23:21:00,
2013-01-09 18:26:00,62.2,54.1,30.34,NNE,28,0.0,7.0,70,0.00,,,0.01,0.0,meteohub,2013-01-09 23:26:00,
2013-01-09 18:31:00,62.2,54.1,30.33,NNE,28,0.0,7.0,70,0.00,,,0.01,0.0,meteohub,2013-01-09 23:31:00,
2013-01-09 18:36:00,62.2,54.1,30.33,ENE,59,4.0,6.0,70,0.00,,,0.01,0.0,meteohub,2013-01-09 23:36:00,
2013-01-09 18:41:00,62.1,54.0,30.33,NE,55,1.0,6.0,70,0.00,,,0.01,0.0,meteohub,2013-01-09 23:41:00,
2013-01-09 18:46:00,62.1,54.0,30.34,ENE,69,1.0,6.0,70,0.00,,,0.01,0.0,meteohub,2013-01-09 23:46:00,
2013-01-09 18:51:00,61.9,53.8,30.33,ENE,57,0.0,5.0,70,0.00,,,0.01,0.0,meteohub,2013-01-09 23:51:00,
2013-01-09 18:56:00,61.9,53.8,30.34,ENE,57,0.0,5.0,70,0.00,,,0.01,0.0,meteohub,2013-01-09 23:56:00,
2013-01-09 19:01:00,61.9,53.8,30.34,ENE,61,0.0,5.0,70,0.00,,,0.01,0.0,meteohub,2013-01-10 00:01:00,
2013-01-09 19:06:00,61.7,53.8,30.33,NNE,31,2.0,4.0,70,0.00,,,0.01,0.0,meteohub,2013-01-10 00:06:00,
2013-01-09 19:11:00,61.5,53.6,30.34,ENE,65,0.0,7.0,70,0.00,,,0.01,0.0,meteohub,2013-01-10 00:11:00,
2013-01-09 19:16:00,61.5,53.6,30.34,NE,43,0.0,7.0,70,0.00,,,0.01,0.0,meteohub,2013-01-10 00:16:00,
2013-01-09 19:21:00,61.5,53.6,30.34,NE,51,4.0,7.0,70,0.00,,,0.01,0.0,meteohub,2013-01-10 00:21:00,
2013-01-09 19:27:00,61.5,53.6,30.35,NE,49,1.0,5.0,70,0.00,,,0.01,0.0,meteohub,2013-01-10 00:27:00,
2013-01-09 19:32:00,61.5,53.2,30.35,NE,41,0.0,5.0,69,0.00,,,0.01,0.0,meteohub,2013-01-10 00:32:00,
2013-01-09 19:37:00,61.5,53.2,30.35,NE,41,0.0,5.0,69,0.00,,,0.01,0.0,meteohub,2013-01-10 00:37:00,
2013-01-09 19:42:00,61.3,53.1,30.35,NE,38,3.0,3.0,69,0.00,,,0.01,0.0,meteohub,2013-01-10 00:42:00,
2013-01-09 19:47:00,61.3,53.1,30.35,NNE,31,2.0,4.0,69,0.00,,,0.01,0.0,meteohub,2013-01-10 00:47:00,
2013-01-09 19:51:00,61.3,53.1,30.35,NNE,31,0.0,4.0,69,0.00,,,0.01,0.0,meteohub,2013-01-10 00:51:00,
2013-01-09 19:57:00,61.2,52.9,30.35,NNE,32,0.0,4.0,69,0.00,,,0.01,0.0,meteohub,2013-01-10 00:57:00,
2013-01-09 20:02:00,61.2,52.9,30.36,NE,35,0.0,4.0,69,0.00,,,0.01,0.0,meteohub,2013-01-10 01:02:00,
2013-01-09 20:07:00,61.2,52.9,30.36,NE,47,1.0,4.0,69,0.00,,,0.01,0.0,meteohub,2013-01-10 01:07:00,
2013-01-09 20:12:00,61.2,52.5,30.36,ENE,59,0.0,5.0,68,0.00,,,0.01,0.0,meteohub,2013-01-10 01:12:00,
2013-01-09 20:17:00,61.2,52.5,30.37,NE,42,0.0,5.0,68,0.00,,,0.01,0.0,meteohub,2013-01-10 01:17:00,
2013-01-09 20:22:00,61.0,52.3,30.37,NE,42,0.0,5.0,68,0.00,,,0.01,0.0,meteohub,2013-01-10 01:22:00,
2013-01-09 20:27:00,61.0,52.3,30.37,NE,42,0.0,3.0,68,0.00,,,0.01,0.0,meteohub,2013-01-10 01:27:00,
2013-01-09 20:32:00,61.0,52.3,30.37,NE,42,2.0,3.0,68,0.00,,,0.01,0.0,meteohub,2013-01-10 01:32:00,
2013-01-09 20:37:00,61.0,52.3,30.37,NE,42,0.0,3.0,68,0.00,,,0.01,0.0,meteohub,2013-01-10 01:37:00,
2013-01-09 20:42:00,60.8,52.2,30.37,NE,52,2.0,3.0,68,0.00,,,0.01,0.0,meteohub,2013-01-10 01:42:00,
2013-01-09 20:47:00,60.6,52.0,30.37,NE,52,0.0,3.0,68,0.00,,,0.01,0.0,meteohub,2013-01-10 01:47:00,
2013-01-09 20:52:00,60.6,52.0,30.37,NE,44,1.0,6.0,68,0.00,,,0.01,0.0,meteohub,2013-01-10 01:52:00,
2013-01-09 20:57:00,60.6,52.0,30.36,NE,44,1.0,6.0,68,0.00,,,0.01,0.0,meteohub,2013-01-10 01:57:00,
2013-01-09 21:02:00,60.4,52.2,30.36,NE,42,0.0,6.0,69,0.00,,,0.01,0.0,meteohub,2013-01-10 02:02:00,
2013-01-09 21:07:00,60.4,51.8,30.37,NNE,32,0.0,3.0,68,0.00,,,0.01,0.0,meteohub,2013-01-10 02:07:00,
2013-01-09 21:12:00,60.4,51.8,30.37,NNE,32,0.0,5.0,68,0.00,,,0.01,0.0,meteohub,2013-01-10 02:12:00,
2013-01-09 21:17:00,60.3,51.6,30.37,NNE,32,1.0,5.0,68,0.00,,,0.01,0.0,meteohub,2013-01-10 02:17:00,
2013-01-09 21:22:00,60.3,51.6,30.37,NNE,32,0.0,3.0,68,0.00,,,0.01,0.0,meteohub,2013-01-10 02:22:00,
2013-01-09 21:27:00,60.3,52.0,30.38,NNE,32,0.0,2.0,69,0.01,,,0.02,0.0,meteohub,2013-01-10 02:27:00,
2013-01-09 21:32:00,60.1,51.8,30.37,NNE,32,0.0,2.0,69,0.01,,,0.02,0.0,meteohub,2013-01-10 02:32:00,
2013-01-09 21:37:00,60.1,51.8,30.37,NNE,32,0.0,1.0,69,0.01,,,0.02,0.0,meteohub,2013-01-10 02:37:00,
2013-01-09 21:42:00,60.1,51.8,30.37,NNE,32,0.0,1.0,69,0.01,,,0.02,0.0,meteohub,2013-01-10 02:42:00,
2013-01-09 21:47:00,59.9,51.6,30.37,NNE,32,0.0,2.0,69,0.01,,,0.02,0.0,meteohub,2013-01-10 02:47:00,
2013-01-09 21:52:00,59.9,51.6,30.37,NNE,32,0.0,2.0,69,0.01,,,0.02,0.0,meteohub,2013-01-10 02:52:00,
2013-01-09 21:57:00,59.7,51.4,30.37,NNE,33,3.0,5.0,69,0.01,,,0.02,0.0,meteohub,2013-01-10 02:57:00,
2013-01-09 22:02:00,59.7,51.4,30.37,NNE,33,1.0,5.0,69,0.01,,,0.02,0.0,meteohub,2013-01-10 03:02:00,
2013-01-09 22:07:00,59.7,51.4,30.37,ENE,65,0.0,5.0,69,0.01,,,0.02,0.0,meteohub,2013-01-10 03:07:00,
2013-01-09 22:12:00,59.7,51.8,30.37,ENE,65,0.0,4.0,70,0.01,,,0.02,0.0,meteohub,2013-01-10 03:12:00,
2013-01-09 22:17:00,59.5,51.6,30.37,ENE,65,0.0,4.0,70,0.01,,,0.02,0.0,meteohub,2013-01-10 03:17:00,
2013-01-09 22:22:00,59.5,51.6,30.37,NE,52,0.0,2.0,70,0.01,,,0.02,0.0,meteohub,2013-01-10 03:22:00,
2013-01-09 22:27:00,59.5,51.6,30.37,NE,52,0.0,4.0,70,0.00,,,0.02,0.0,meteohub,2013-01-10 03:27:00,
2013-01-09 22:32:00,59.5,51.6,30.37,NE,52,0.0,4.0,70,0.00,,,0.02,0.0,meteohub,2013-01-10 03:32:00,
2013-01-09 22:37:00,59.5,51.6,30.37,NE,52,1.0,4.0,70,0.00,,,0.02,0.0,meteohub,2013-01-10 03:37:00,
2013-01-09 22:42:00,59.5,51.6,30.37,NE,52,0.0,3.0,70,0.00,,,0.02,0.0,meteohub,2013-01-10 03:42:00,
2013-01-09 22:47:00,59.4,51.8,30.38,NE,52,0.0,3.0,71,0.00,,,0.02,0.0,meteohub,2013-01-10 03:47:00,
2013-01-09 22:52:00,59.4,51.8,30.38,NE,52,0.0,3.0,71,0.00,,,0.02,0.0,meteohub,2013-01-10 03:52:00,
2013-01-09 22:57:00,59.4,51.8,30.38,NE,52,0.0,3.0,71,0.00,,,0.02,0.0,meteohub,2013-01-10 03:57:00,
2013-01-09 23:02:00,59.4,51.8,30.38,NE,52,0.0,2.0,71,0.00,,,0.02,0.0,meteohub,2013-01-10 04:02:00,
2013-01-09 23:07:00,59.4,51.8,30.38,NE,52,0.0,3.0,71,0.00,,,0.02,0.0,meteohub,2013-01-10 04:07:00,
2013-01-09 23:12:00,59.4,51.8,30.38,NE,52,0.0,3.0,71,0.00,,,0.02,0.0,meteohub,2013-01-10 04:12:00,
2013-01-09 23:17:00,59.4,51.8,30.38,NE,52,0.0,4.0,71,0.00,,,0.02,0.0,meteohub,2013-01-10 04:17:00,
2013-01-09 23:21:00,59.2,51.6,30.37,NE,52,0.0,4.0,71,0.00,,,0.02,0.0,meteohub,2013-01-10 04:21:00,
2013-01-09 23:27:00,59.2,51.6,30.37,NE,52,0.0,2.0,71,0.00,,,0.02,0.0,meteohub,2013-01-10 04:27:00,
2013-01-09 23:32:00,59.2,51.6,30.37,NE,52,0.0,1.0,71,0.00,,,0.02,0.0,meteohub,2013-01-10 04:32:00,
2013-01-09 23:37:00,59.2,51.6,30.37,NE,52,0.0,3.0,71,0.00,,,0.02,0.0,meteohub,2013-01-10 04:37:00,
2013-01-09 23:42:00,59.2,51.6,30.37,NE,36,0.0,3.0,71,0.00,,,0.02,0.0,meteohub,2013-01-10 04:42:00,
2013-01-09 23:47:00,59.2,52.0,30.37,NE,36,0.0,3.0,72,0.00,,,0.02,0.0,meteohub,2013-01-10 04:47:00,
2013-01-09 23:52:00,59.0,51.8,30.38,ENE,58,0.0,3.0,72,0.00,,,0.02,0.0,meteohub,2013-01-10 04:52:00,
2013-01-09 23:57:00,59.0,51.8,30.37,ENE,58,0.0,3.0,72,0.00,,,0.02,0.0,meteohub,2013-01-10 04:57:00,